Tracking 28790 objects as of 19-Apr-2024
HD Live streaming from Space Station
objects crossing your sky now

SL-18 R/B

Track SL-18 R/B now!
10-day predictions


NORAD ID: 26703
Int'l Code: 2001-007B
Perigee: 563.3 km
Apogee: 577.9 km
Inclination: 97.7 °
Period: 95.9 minutes
Semi major axis: 6941 km
RCS: 2.4311 m2 (large)
Launch date: February 20, 2001
Source: Commonwealth of Independent States (former USSR) (CIS)
Launch site: Svobodny, Russia (SVOB)

Pakistan's microsatellite for development of surveillance capability.
Note: This is a ROCKET BODY
Your satellite tracking list
Your tracking list is empty




NASA's NSSDC Master Catalog

Two Line Element Set (TLE):
1 26703U 01007B   24109.91173391  .00006825  00000-0  53703-3 0  9998
2 26703  97.7060 119.6357 0010549 129.8999 230.3154 15.01107555542433
Source of the keplerian elements: AFSPC